Location: Muck Cross
(36.7179°N, 78.3678°W)
Time: 11:23:51
(UTC+00:00)

S-56A Canister/Altair - Visible Passes

Search period start: 30 March 2023 00:00
Search period end: 09 April 2023 00:00
Orbit: 639 x 2493 km, 38.9° (Epoch: 29 March)

Date Brightness Start Highest point End Pass type
(mag) Time Alt. Az. Time Alt. Az. Time Alt. Az.
30 Mar 9.8 01:47:21 10° W 02:00:08 84° N 02:07:14 41° E visible
30 Mar 10.0 03:53:05 10° WNW 04:04:37 62° WSW 04:04:37 62° WSW visible
30 Mar 11.4 06:00:23 10° W 06:02:00 14° W 06:02:00 14° W visible
31 Mar 9.8 01:14:13 10° W 01:26:21 82° N 01:35:52 29° E visible
31 Mar 9.8 03:19:40 10° WNW 03:33:15 75° SW 03:33:15 75° SW visible
31 Mar 11.2 05:26:27 10° WNW 05:30:39 21° W 05:30:39 21° W visible
01 Apr 9.8 00:41:10 10° W 00:52:36 81° N 01:04:30 20° E visible
01 Apr 9.7 02:46:22 10° WNW 02:59:47 79° SSW 03:01:53 70° SE visible
01 Apr 10.8 04:52:41 10° WNW 04:59:17 29° W 04:59:17 29° W visible
02 Apr 9.7 00:08:12 10° W 00:18:56 81° N 00:33:10 12° E visible
02 Apr 9.8 02:13:09 10° WNW 02:26:01 83° SSW 02:30:33 55° ESE visible
02 Apr 10.5 04:19:04 10° WNW 04:27:57 39° WSW 04:27:57 39° WSW visible
03 Apr 9.7 01:40:01 10° WNW 01:52:16 86° SSW 01:59:14 41° ESE visible
03 Apr 10.2 03:45:34 10° WNW 03:56:38 48° WSW 03:56:38 48° WSW visible
04 Apr 9.7 01:06:58 10° WNW 01:18:34 89° S 01:27:57 29° ESE visible
04 Apr 10.0 03:12:12 10° WNW 03:25:04 55° SSW 03:25:20 55° SSW visible
04 Apr 11.4 05:20:22 10° W 05:22:44 14° W 05:22:44 14° W visible
05 Apr 9.7 00:34:00 10° WNW 00:44:55 88° NNE 00:56:40 19° ESE visible
05 Apr 9.9 02:38:55 10° WNW 02:51:25 59° SSW 02:54:05 54° S visible
05 Apr 11.1 04:46:16 10° W 04:51:28 20° WSW 04:51:28 20° WSW visible
06 Apr 9.6 00:01:06 10° WNW 00:11:20 85° N 00:25:27 11° ESE visible
06 Apr 9.9 02:05:45 10° WNW 02:17:46 64° SSW 02:22:51 45° SSE visible
06 Apr 10.9 04:12:23 10° W 04:20:15 27° WSW 04:20:15 27° WSW visible
07 Apr 9.8 01:32:41 10° WNW 01:44:09 68° SSW 01:51:41 35° SE visible
07 Apr 10.6 03:38:43 10° W 03:49:05 32° SW 03:49:05 32° SW visible
08 Apr 9.7 00:59:42 10° WNW 01:10:34 72° SSW 01:20:33 24° SE visible
08 Apr 10.5 03:05:14 10° W 03:16:23 36° SW 03:17:58 35° SSW visible
